Theta_e
287 287 285 284 283 283 281 281 281 280 279 278 278 278 277 277 278 277 277 277 277 277 277 277 277 278 277 277 278 278 277 276 273 275 277 279 279 279 281 283 288 290 292
287 285 284 283 281 280 280 279 280 278 278 278 277 277 276 276 276 276 275 275 275 275 275 275 275 276 275 275 275 275 275 275 274 272 275 276 276 278 279 281 284 287 289
286 284 282 280 279 279 278 278 278 277 277 277 276 275 275 275 274 274 274 274 274 274 274 274 274 274 274 274 274 274 274 275 275 273 272 275 276 277 278 281 286 288 290
284 281 279 279 278 278 278 277 276 276 275 275 275 274 274 273 273 273 273 273 273 274 275 275 275 275 274 274 274 274 274 273 273 273 272 273 274 277 277 279 283 286 289
281 279 278 278 278 277 276 275 275 274 274 274 273 273 273 273 273 273 273 273 273 274 275 275 275 275 276 276 275 274 274 274 273 272 272 273 273 275 277 280 282 287 290
279 278 278 277 276 275 275 274 273 273 272 272 272 272 271 272 274 275 275 274 274 273 272 273 275 275 275 277 277 278 277 274 273 273 273 272 273 275 277 278 280 284 285
278 277 276 275 273 273 273 272 271 271 271 271 271 271 271 271 274 275 275 274 273 273 273 273 273 275 275 274 275 276 277 278 279 277 275 276 276 278 278 278 279 279 284
277 275 274 273 272 271 270 269 270 270 270 270 270 270 269 271 273 274 275 274 273 273 273 273 273 273 274 274 273 273 274 274 277 277 277 277 278 279 279 280 280 282 283
275 273 272 272 270 269 268 269 269 269 269 269 269 269 268 268 272 274 275 273 272 273 274 274 274 274 276 276 273 273 273 274 277 279 280 281 283 282 281 279 278 280 282
274 272 271 270 269 268 268 268 269 268 268 269 268 268 268 268 272 274 275 273 272 273 274 275 275 273 275 276 273 272 270 272 274 276 278 279 281 282 283 281 280 279 281
272 270 270 268 268 268 268 268 267 266 267 266 267 269 270 271 271 273 275 274 273 273 272 271 272 274 275 276 276 273 273 275 274 275 276 278 279 279 279 280 281 282 281
269 268 267 267 267 266 265 265 265 265 265 266 267 269 271 271 272 273 275 276 276 271 270 271 271 274 274 275 275 277 278 277 275 275 275 277 277 278 279 280 282 284 286
267 266 265 265 266 265 263 264 265 265 266 267 268 268 268 270 270 273 274 275 275 271 271 272 272 272 272 273 274 275 274 275 274 274 274 275 278 280 281 281 283 284 285
265 265 264 264 264 264 265 265 266 266 266 267 267 267 268 268 269 271 272 272 273 271 272 267 269 270 270 271 270 271 271 272 272 273 276 277 279 280 280 282 282 284 284
265 264 264 264 264 264 266 266 266 267 267 267 267 267 267 266 269 273 273 271 271 271 268 265 264 265 266 266 267 268 269 270 270 271 271 273 276 279 281 282 283 283 282
265 264 264 264 264 265 264 263 266 267 267 267 268 268 269 271 272 273 273 273 272 272 264 262 263 263 264 265 264 266 268 268 268 270 270 271 273 276 281 283 283 283 283
265 265 264 264 263 263 264 264 262 263 265 265 266 267 269 270 271 271 272 271 269 268 261 261 261 262 263 264 264 265 266 267 268 269 269 269 270 271 274 281 282 284 283
265 264 263 263 263 263 263 262 262 262 261 262 263 265 267 269 269 270 270 266 261 262 261 261 261 262 263 264 264 264 266 267 267 268 267 267 267 268 270 273 281 284 284
263 263 263 262 262 262 261 260 260 259 259 259 260 262 262 266 267 267 267 260 259 259 260 260 262 262 263 264 264 264 266 266 267 267 266 266 266 266 267 270 273 279 284
262 261 260 260 259 259 260 260 259 258 258 258 258 258 258 260 259 259 260 259 259 259 259 260 261 262 263 263 264 264 266 266 267 266 265 265 265 266 267 268 269 274 283
260 259 259 259 259 259 259 259 259 258 257 257 257 257 265 256 256 257 257 258 258 258 258 259 260 262 263 263 264 265 266 266 267 265 264 264 265 265 266 268 269 271 285
259 259 259 259 259 258 258 258 258 257 256 256 256 257 260 257 256 255 256 257 257 258 258 259 260 261 263 263 264 266 266 266 267 265 264 264 265 266 267 268 270 276 289
259 259 258 258 258 256 257 257 256 257 256 255 256 256 255 255 254 255 255 256 256 256 258 258 260 261 263 264 265 268 267 267 267 266 265 264 265 265 266 267 270 285 288
259 258 258 257 256 257 256 256 255 255 256 255 255 254 254 253 254 254 255 255 255 255 256 258 259 260 261 263 266 268 269 270 268 266 266 265 264 264 265 267 268 286 287
259 258 257 257 256 257 256 255 256 255 255 255 254 254 253 254 254 253 254 254 254 254 254 256 259 259 261 262 266 268 270 270 268 267 267 266 265 264 264 266 267 271 287
258 258 257 257 256 256 256 255 255 255 254 254 254 253 253 253 253 253 253 253 253 252 254 256 257 259 261 264 265 270 271 271 269 267 267 266 265 264 264 264 265 267 270
Wind_Speed
18 17 15 14 13 11 10 9 8 8 7 8 9 9 10 10 10 11 12 13 14 14 13 14 16 16 12 12 12 13 14 15 18 20 19 19 22 22 22 21 22 19 19
17 16 15 14 12 11 11 10 9 9 8 8 8 9 10 10 10 11 12 12 14 14 15 16 17 12 16 16 13 18 16 17 16 24 20 17 22 21 23 26 21 18 19
16 16 15 14 13 13 11 10 10 9 8 7 8 10 10 10 10 11 12 13 14 14 15 16 17 17 17 15 17 17 16 15 15 17 19 15 16 17 20 21 21 18 16
17 17 16 16 14 12 10 9 8 7 6 7 8 9 9 10 10 11 13 14 14 14 15 16 17 19 19 19 18 20 18 17 16 16 17 17 16 16 17 19 16 14 18
17 16 15 14 12 11 9 9 7 6 6 6 7 9 9 9 8 10 13 14 15 16 16 16 18 21 30 28 18 18 19 17 14 15 15 16 16 15 15 15 14 16 8
18 16 14 13 11 10 9 8 7 6 6 7 8 9 9 7 13 17 17 14 16 17 17 17 18 22 24 33 34 37 31 19 20 16 16 18 21 17 16 16 14 15 4
16 15 14 13 11 10 9 8 7 7 6 7 8 8 9 10 15 17 20 13 15 16 17 18 18 15 20 21 28 35 33 35 36 23 22 20 19 17 17 19 18 15 13
14 13 12 12 11 10 9 8 8 7 8 7 7 6 8 10 14 17 20 15 15 17 18 19 21 23 21 23 23 22 22 21 21 17 20 20 21 20 18 18 20 19 15
14 13 12 11 11 11 9 9 7 5 5 5 5 6 7 9 15 18 19 14 16 18 18 19 20 22 27 35 26 24 22 20 24 36 39 40 37 35 30 15 16 14 12
15 13 10 10 10 10 8 7 4 3 6 5 5 6 9 8 13 18 18 11 16 15 18 18 23 25 35 35 24 21 22 20 19 19 19 23 30 24 35 25 16 17 11
16 14 12 11 10 9 8 6 5 5 4 4 6 7 7 6 8 17 21 13 12 15 15 16 14 32 34 38 37 22 23 21 23 20 17 15 14 14 14 16 18 18 14
15 15 13 11 9 9 9 7 6 5 4 5 5 5 5 6 11 15 22 24 24 14 16 15 17 34 36 34 28 34 30 27 14 14 14 13 12 12 13 15 18 17 13
15 15 13 11 9 8 8 7 5 5 4 3 3 3 5 6 7 18 22 26 24 17 13 24 35 30 32 23 28 30 22 11 12 12 13 13 14 12 14 15 16 18 16
16 13 12 11 10 8 6 6 5 5 3 3 2 4 5 6 7 9 9 11 16 14 18 13 22 24 24 23 16 16 12 11 11 11 10 11 13 12 12 11 11 7 10
15 13 12 10 10 9 7 5 5 4 3 1 1 3 5 6 8 16 17 12 12 16 16 11 12 13 13 12 13 13 12 11 11 11 12 11 14 13 12 11 11 10 12
15 11 11 9 8 7 7 5 5 3 2 2 3 3 4 11 17 19 22 24 23 26 11 11 12 13 14 14 14 14 13 14 12 12 11 11 12 12 12 9 11 11 11
15 14 9 10 10 9 7 7 7 5 4 3 3 4 9 11 14 17 20 22 20 18 8 10 12 13 14 14 14 14 15 13 16 11 12 12 12 11 13 12 12 11 12
15 17 11 9 8 7 8 7 5 5 5 3 2 4 9 12 12 15 19 15 10 12 9 11 12 13 14 14 14 15 15 14 13 12 13 12 11 11 11 11 10 12 11
14 11 10 8 8 8 7 6 5 5 4 3 2 2 6 14 10 13 16 7 9 10 10 11 11 13 13 14 14 15 16 16 15 13 12 12 10 10 11 11 12 18 13
9 16 13 9 8 8 7 7 6 4 4 3 2 3 5 4 4 6 6 7 8 8 10 11 12 13 13 14 14 15 15 16 13 12 12 12 11 10 11 12 11 15 15
11 11 14 9 8 7 7 6 6 5 5 3 2 1 6 2 4 5 7 7 8 9 10 12 12 13 13 14 15 15 17 17 16 15 13 13 13 12 11 12 13 15 16
13 11 10 10 8 8 6 6 6 5 5 4 2 3 5 2 2 4 5 7 8 9 9 10 11 12 12 14 15 16 19 19 18 17 16 15 14 13 12 13 13 16 13
13 13 10 9 9 10 8 6 5 6 5 3 1 1 2 2 3 4 5 7 8 9 10 10 11 12 13 14 15 14 18 19 19 18 18 16 14 13 12 12 12 11 7
12 12 11 9 9 8 7 6 6 7 4 3 2 1 1 2 3 5 5 7 8 10 10 10 11 15 16 16 14 14 16 18 18 18 20 16 14 17 13 12 12 4 2
10 11 9 10 8 7 7 6 6 5 4 3 2 1 1 2 3 4 5 6 7 9 11 12 11 16 18 25 24 21 23 29 27 28 16 18 20 22 16 12 15 12 3
10 9 9 8 7 7 6 6 5 5 4 3 1 0 0 1 4 3 4 6 7 9 12 10 14 20 23 18 23 25 22 29 28 32 21 18 18 18 18 18 23 13 13
Wind_Direction
191 188 183 180 183 184 192 199 204 214 222 234 247 262 270 272 276 277 275 278 279 280 277 275 274 274 273 271 268 264 262 259 262 267 274 281 280 281 273 271 273 263 261
190 186 182 173 174 184 191 196 196 210 219 234 244 257 263 268 270 271 278 279 280 279 279 278 275 274 273 272 269 266 263 264 266 269 274 279 274 274 277 281 269 264 267
184 182 178 175 177 184 190 190 198 209 222 233 243 251 259 267 273 276 276 277 277 275 275 275 277 275 273 271 267 266 264 264 264 266 276 275 278 279 280 273 272 265 264
181 181 179 179 179 177 180 185 197 212 230 237 251 257 263 270 275 276 280 282 280 277 277 277 278 275 274 275 269 266 264 261 260 261 266 271 270 275 270 271 273 259 264
179 182 178 173 168 167 171 180 180 206 229 248 258 265 270 273 278 282 286 288 285 285 283 283 279 276 275 273 273 270 267 264 257 255 260 266 267 275 268 267 271 279 230
179 180 171 164 159 167 168 166 171 203 228 242 252 262 271 273 284 289 288 287 294 294 290 285 282 282 277 278 280 280 271 264 256 255 257 257 263 267 274 282 284 286 269
175 172 159 159 160 164 160 162 179 197 223 241 251 259 278 283 283 290 301 297 292 288 288 291 288 279 284 281 279 280 279 275 269 268 265 261 266 264 271 275 279 275 286
169 160 156 155 152 155 164 176 187 194 213 236 256 274 274 280 292 303 307 300 297 291 289 288 285 287 282 283 279 274 269 266 264 261 262 268 263 262 260 265 271 278 280
169 161 157 156 154 157 171 186 192 197 226 247 260 267 278 281 299 313 318 306 297 295 293 290 289 288 294 297 290 285 278 265 263 264 265 265 254 252 256 258 256 256 246
167 152 148 150 151 159 167 172 179 216 234 244 268 279 270 275 305 322 319 305 301 302 299 300 301 300 302 303 294 287 282 276 275 263 261 265 267 255 255 249 250 262 258
148 136 146 149 153 158 157 157 179 218 241 260 267 273 267 297 316 317 318 313 308 309 316 311 308 308 306 306 298 287 276 272 269 271 275 275 244 240 243 248 236 248 243
138 136 146 150 153 158 159 159 190 202 224 245 258 284 325 330 323 321 320 322 322 322 316 310 303 313 314 307 310 299 290 270 264 261 264 269 251 240 239 243 239 237 245
138 143 145 148 155 153 150 163 185 191 218 243 279 334 334 328 321 318 318 328 330 328 315 319 321 316 318 316 317 320 330 275 264 268 265 267 269 249 242 241 239 238 240
140 149 147 147 151 157 166 170 179 189 200 244 333 349 331 334 320 315 329 327 326 327 326 327 320 320 327 320 322 324 321 316 311 306 282 272 266 260 242 241 249 233 223
145 147 151 149 157 158 169 169 180 182 219 243 344 341 333 326 316 336 340 335 336 327 349 327 323 328 325 330 323 325 323 320 314 310 306 291 293 256 244 233 234 238 239
144 153 154 149 154 155 156 145 200 192 206 148 28 344 337 323 332 344 342 343 346 348 349 331 328 328 325 327 330 324 326 323 317 306 299 290 286 297 252 240 227 231 237
148 151 150 155 151 154 156 158 163 179 196 200 44 357 350 333 347 351 350 351 350 359 348 334 327 326 321 325 329 320 323 322 317 303 305 298 293 293 292 264 231 230 229
146 145 152 147 146 145 143 146 154 165 168 158 55 339 348 344 350 359 359 350 351 355 344 329 327 323 319 324 330 318 322 321 316 310 309 299 294 289 288 279 276 228 228
139 144 138 138 137 136 133 138 144 158 148 106 29 350 1 344 350 2 4 2 349 337 332 327 325 322 320 323 327 316 323 323 313 321 311 301 294 287 283 278 277 275 251
134 137 136 133 136 136 140 149 153 150 115 91 57 3 322 331 349 347 341 347 340 327 326 322 323 320 322 326 327 318 327 325 323 326 315 306 300 292 282 281 272 269 256
138 139 137 133 132 143 153 152 143 140 127 131 98 6 307 312 344 333 328 344 332 324 323 319 318 317 321 326 328 323 334 328 334 330 323 313 306 297 288 275 265 261 247
135 142 144 135 137 146 146 139 145 133 121 104 93 244 327 290 11 312 333 330 323 314 310 314 313 317 321 326 327 328 339 336 341 335 329 322 315 306 292 280 270 266 228
133 139 134 135 134 137 135 145 145 124 106 107 199 279 291 14 339 326 333 324 321 316 313 316 317 319 324 328 330 331 343 342 345 336 330 326 321 313 303 291 274 259 191
132 134 140 134 136 141 138 151 116 94 131 153 141 264 351 3 327 317 325 320 319 316 315 317 317 319 324 329 330 327 344 346 348 340 337 330 330 330 326 318 319 290 121
128 131 142 134 136 140 144 125 116 139 150 140 131 239 38 340 314 311 322 314 316 315 316 318 319 323 327 327 334 326 347 353 358 350 344 346 346 351 347 346 346 343 23
122 139 130 126 133 137 122 128 147 150 138 131 156 200 285 335 300 312 314 317 324 314 316 318 318 323 326 329 333 338 350 355 6 357 352 357 358 2 359 1 1 359 357